This is the latest recevied weather packets stored in our database for station/object KD0KHX-10. If no packets are shown the sender has not sent any weather packets the latest 10 day(s).
| Time | Temp. | Humidity | Pressure | Rain* | Wind** | Luminosity | Snow |
|---|---|---|---|---|---|---|---|
| 1777424403 | 10.56° C | 61% | 1011.7 hPa | 0 mm | - | - | - |
| 1777424103 | 10.56° C | 60% | 1011.6 hPa | 0 mm | - | - | - |
| 1777424072 | 11.11° C | 60% | 1011.6 hPa | 0 mm | - | - | - |
| 1777423503 | 11.11° C | 59% | 1011.4 hPa | 0 mm | - | - | - |
| 1777423203 | 11.11° C | 58% | 1011.3 hPa | 0 mm | - | - | - |
| 1777422903 | 11.67° C | 58% | 1011.3 hPa | 0 mm | - | - | - |
| 1777422603 | 11.67° C | 57% | 1011.2 hPa | 0 mm | - | - | - |
| 1777422438 | 11.67° C | 57% | 1011.2 hPa | 0 mm | - | - | - |
| 1777422137 | 11.67° C | 57% | 1011.3 hPa | 0 mm | - | - | - |
| 1777421703 | 12.22° C | 57% | 1011.4 hPa | 0 mm | - | - | - |
| 1777421403 | 12.22° C | 55% | 1011.4 hPa | 0 mm | - | - | - |
| 1777421103 | 12.78° C | 56% | 1011.4 hPa | 0 mm | - | - | - |
| 1777421072 | 12.78° C | 56% | 1011.4 hPa | 0 mm | - | - | - |
| 1777420773 | 12.78° C | 55% | 1011.4 hPa | 0 mm | - | - | - |
| 1777420203 | 12.78° C | 56% | 1011.5 hPa | 0 mm | - | - | - |
| 1777419903 | 12.22° C | 55% | 1011.4 hPa | 0 mm | - | - | - |
| 1777419872 | 12.22° C | 55% | 1011.4 hPa | 0 mm | - | - | - |
| 1777419303 | 12.22° C | 56% | 1011.3 hPa | 0 mm | - | - | - |
| 1777419003 | 12.22° C | 56% | 1011.2 hPa | 0 mm | - | - | - |
| 1777418973 | 12.22° C | 55% | 1011.2 hPa | 0 mm | - | - | - |
| 1777418403 | 12.78° C | 55% | 1011.1 hPa | 0 mm | - | - | - |
| 1777418373 | 12.78° C | 55% | 1011.1 hPa | 0 mm | - | - | - |
| 1777418074 | 12.78° C | 55% | 1010.9 hPa | 0 mm | - | - | - |
| 1777417503 | 12.78° C | 54% | 1010.9 hPa | 0 mm | - | - | - |
| 1777417474 | 12.78° C | 54% | 1010.9 hPa | 0 mm | - | - | - |
* Rain latest hour (hover to see other rain measurements)
** Current wind speed in m/s (hover to see current wind gust speed)